Regional Weather Roundup
Issued by NWS

Home | Current Version | Previous Version | Text Only | Print | Product List | Glossary Off
Versions: 1 2 3 4 5 6 7 8 9 10 11 12 13 14 15 16 17 18 19 20 21 22 23 24 25 26 27 28 29 30 31 32 33 34 35 36 37 38 39 40 41 42 43 44 45 46 47 48 49 50

000
ASUS45 KTFX 222110
RWRMT
MONTANA REGIONAL WEATHER ROUNDUP
NATIONAL WEATHER SERVICE GREAT FALLS MT
300 PM MDT FRI SEP 22 2017

NOTE: "FAIR" INDICATES FEW OR NO CLOUDS BELOW 12000 FEET WITH NO
SIGNIFICANT WEATHER AND/OR OBSTRUCTIONS TO VISIBILITY.

MTZ001>007-043-222200-
WEST OF THE DIVIDE

CITY           SKY/WX    TMP DP  RH WIND       PRES   REMARKS
KALISPELL      CLOUDY    52  30  43 N9        30.00S
MISSOULA       LGT RAIN  42  41  96 E7        30.03R
BUTTE          SNOW      33  32  96 NW3       29.97R VSB 1/2
MULLAN PASS    CLOUDY    35  32  88 CALM      29.98R
ANACONDA         N/A     36  30  80 N9        29.99R WCI  29
DEER LODGE       N/A     36  32  87 NW7       30.02S WCI  30
EUREKA           N/A     52  27  37 CALM      30.02
HAMILTON         N/A     43  30  61 NW14      30.00
LIBBY            N/A     54  30  40 CALM      29.99F
PLAINS           N/A     50  35  56 CALM      30.03S
THOMPSON FALLS   N/A     51  38  61 NE9       30.05F
$$

MTZ008-052>055-222200-
SOUTHWEST MONTANA

CITY           SKY/WX    TMP DP  RH WIND       PRES   REMARKS
BOZEMAN        CLOUDY    43  36  76 W8        29.96R
DILLON         CLOUDY    37  33  85 NE12      29.94R WCI  29
W YELLOWSTONE  MIX PCPN  37  34  87 VRB7G26   29.93R
ENNIS          MIX PCPN  37  34  87 N7        29.99R
THREE FORKS      N/A     40  36  86 N5        29.97R
TWIN BRIDGES     N/A     37  32  82 N12       29.95R WCI  29
$$

MTZ009-010-012-014-046-048-049-054-222200-
EAST SLOPES AND CENTRAL MONTANA

CITY           SKY/WX    TMP DP  RH WIND       PRES   REMARKS
CUT BANK       CLOUDY    41  29  62 N6        30.05S
GREAT FALLS    CLOUDY    37  34  89 NE7       30.06R FOG     WCI  32
MALMSTROM AFB  LGT RAIN  38  36  94 NE9       30.07R WCI  31
HELENA         MIX PCPN  36  35  96 W7        30.03R WCI  30
BOWMANS CRNR   LGT SNOW  31  31  99 N7        30.04R VSB 3/4 WCI  25
CHOTEAU          N/A     39  34  81 NE6       30.08R
FAIRFIELD      LGT RAIN  37  33  87 NE5       30.06R
POWER          LGT RAIN  37  34  88 NE6       30.06R
RAYNESFORD     LGT SNOW  35  35  96 CALM      30.05R
ULM            FLURRIES  36  35  96 N7        30.07R WCI  30
$$

MTZ011-013-016-021-045-047-050-051-222200-
NORTH CENTRAL MONTANA

CITY           SKY/WX    TMP DP  RH WIND       PRES   REMARKS
HAVRE          CLOUDY    47  33  58 CALM      30.06S
LEWISTOWN      CLOUDY    36  35  96 E9        30.03S WCI  29
N BAR RANCH    PTSUNNY   34  34 100 CALM      30.06R FOG
CHINOOK          N/A     46  34  61 CALM      30.06S
DENTON         DRIZZLE   38  36  92 E7        30.02R
GEYSER         LGT RAIN  36  35  97 NE5       30.05R
JUDITH GAP     LGT RAIN  35  33  95 NW14G23   30.02R WCI  25
WINIFRED       LGT RAIN  39  37  90 NE7       30.04R
$$

MTZ017>020-022>027-061-062-222200-
NORTHEAST MONTANA

CITY           SKY/WX    TMP DP  RH WIND       PRES   REMARKS
GLASGOW        CLOUDY    46  40  79 N7        30.04S
JORDAN           N/A     43  39  86 NE8       30.05R
SIDNEY         CLOUDY    47  39  74 N15G24    30.01R
WOLF POINT     LGT RAIN  46  40  79 N10       30.06S
MALTA          CLOUDY    48  37  66 N5        30.05S
SCOBEY           N/A     42  37  82 NW8       30.02F
$$

MTZ028>42-056>058-222200-
SOUTHCENTRAL AND SOUTHEAST MONTANA

CITY           SKY/WX    TMP DP  RH WIND       PRES   REMARKS
BAKER          CLOUDY    50  34  54 N16       29.98R
BILLINGS       CLOUDY    40  38  93 NE15      30.00R
LIVINGSTON     CLOUDY    38  33  82 E18       29.97S WCI  28
MILES CITY     CLOUDY    47  35  63 N15       30.02R
BIG TIMBER     PTSUNNY   34  34 100 NE8       30.04R WCI  27
EKALAKA          N/A     49  33  54 N12       29.94R
HARLOWTON      FLURRIES  34  33  97 MISG      30.03R
LAUREL           N/A     41  39  93 NE16      30.01R FOG
$$

REGIONAL REPORTS...DAKOTAS

CITY           SKY/WX    TMP DP  RH WIND       PRES   REMARKS
WILLISTON      CLOUDY    48  40  73 N17       29.99S
MINOT          CLOUDY    50  44  80 NW22G29   29.89S
DICKINSON      CLOUDY    49  38  65 N17G23    29.91R
BEACH          CLOUDY    46  37  71 N16G23    30.00S
CROSBY         CLOUDY    45  45 100 NW12G18   30.01R FOG
TIOGA          CLOUDY    45  45 100 N18       29.98S
WATFORD CITY   CLOUDY    46  43  87 N16       29.98R
BISMARCK       CLOUDY    52  46  80 N16G23    29.82R
GRAND FORKS    CLOUDY    72  63  73 N13       29.68F
FARGO          PTSUNNY   88  72  58 S15G23    29.62F HX  94
BUFFALO SD       N/A     55  35  47 N20G26    29.84F
RAPID CITY     SUNNY     61  39  44 N31G37    29.86R
$$

REGIONAL REPORTS...WYOMING/IDAHO/WASHINGTON

CITY           SKY/WX    TMP DP  RH WIND       PRES   REMARKS
GILLETTE       CLOUDY    50  38  63 N12       29.94S
SHERIDAN       CLOUDY    46  41  82 NE6       29.96F
BUFFALO WY     CLOUDY    43  37  79 N9        29.96F
CODY           CLOUDY    40  36  86 N8        29.97R
IDAHO FALLS    CLOUDY    46  38  73 SW10      29.94R
SALMON         CLOUDY    47  32  56 CALM      29.93R
BOISE          CLOUDY    48  39  71 W6        29.97R
SPOKANE        MOSUNNY   57  36  45 N8        29.98F
$$

REGIONAL REPORTS...ALBERTA

CITY           SKY/WX    TMP DP  RH WIND       PRES   REMARKS
EDMONTON       CLOUDY    43  37  81 SE5       30.10F
CALGARY        CLOUDY    41  32  70 VRB2      30.07F
LETHBRIDGE     CLOUDY    43  34  70 N5        30.07F
MEDICINE HAT   CLOUDY    46  37  71 N5        30.07F
$$

REGIONAL REPORTS...SASKATCHEWAN

CITY           SKY/WX    TMP DP  RH WIND       PRES   REMARKS
SWIFT CURRENT  CLOUDY    45  34  65 NW10      30.04S
REGINA         CLOUDY    46  39  76 N9        30.04F
SASKATOON      LGT RAIN  45  41  87 NE6       30.07F
$$



USA.gov is the U.S. government's official web portal to all federal, state and local government web resources and services.